Flag for Czech Republic Weather past 2 weeks in Brno, Czech Republic

Now
40 °F

Light rain. Overcast.


Feels Like: 38 °F
Forecast: 38 / 51 °F
Wind: 3 mph from Southwest

Location: Brno / Turany

Current Time: Mar 1, 2015 at 6:38:04 PM

Latest Report: Mar 1, 2015 at 5:00 PM


Visibility: 3 mi

Pressure: 29.84 "Hg

Humidity: 85%

Dew point: 36 °F

Location of BrnoLocation

Historic Weather in Brno — Graph

°F

Brno temperature yesterday

Maximum temperature yesterday: 47 °F (at 1:00 PM)
Minimum temperature yesterday: 36 °F (at 7:00 AM)
Average temperature yesterday: 42 °F

Past Weeks' High & Low Weather Summary

 TemperatureHumidityPressure
High49 °F (Feb 21, 4:00 PM)98% (Feb 24, 8:00 AM)30.79 "Hg (Feb 24, 8:00 AM)
Low27 °F (Feb 17, 5:00 AM)46% (Feb 15, 2:00 PM)29.58 "Hg (Feb 23, 4:00 PM)
Average38 °F77%30.09 "Hg
* Reported Feb 14 5:00 PM — Mar 1 5:00 PM, Brno, Weather by CustomWeather, © 2015

Note: Actual official high and low records may vary slightly from our data, if they occured in-between our weather recording intervals... More about our weather records

Advertising

Brno weather history for previous 24 hours

 ConditionsComfort  
Time TempWeatherWind HumidityBarometerVisibility
5:00 PM
Sun, Mar 1
40 °FLight rain. Overcast.3 mph85%29.84 "Hg3 mi
4:00 PM41 °FLight rain. Overcast.5 mph81%29.85 "Hg4 mi
3:00 PM42 °FFog.5 mph74%29.87 "Hg4 mi
2:00 PM40 °FFog.5 mph77%29.88 "Hg4 mi
1:00 PM41 °FFog.6 mph74%29.89 "Hg4 mi
12:00 PM41 °FFog.2 mph74%29.90 "Hg4 mi
11:00 AM40 °FFog.3 mph82%29.93 "Hg3 mi
10:00 AM36 °FFog.1 mph95%29.96 "Hg1 mi
9:00 AM33 °FFog.2 mph95%29.97 "Hg0 mi
8:00 AM33 °FFog.1 mph94%29.99 "Hg0 mi
7:00 AM32 °FFog.2 mph91%30.00 "Hg1 mi
6:00 AM33 °FFog.2 mph89%30.01 "Hg2 mi
5:00 AM34 °FFog.1 mph88%30.02 "Hg3 mi
3:00 AM32 °FFog.2 mph89%30.04 "Hg3 mi
2:00 AM33 °FFog.2 mph87%30.06 "Hg4 mi
1:00 AM36 °FFog.2 mph81%30.08 "Hg5 mi
12:00 AM37 °FFog.2 mph83%30.09 "Hg4 mi
11:00 PM
Sat, Feb 28
39 °FOvercast.1 mph74%30.10 "Hg6 mi
10:00 PM40 °FOvercast.2 mph72%30.11 "Hg6 mi
9:00 PM40 °FOvercast.3 mph72%30.12 "Hg6 mi
8:00 PM42 °FOvercast.3 mph68%30.12 "Hg6 mi
7:00 PM43 °FLight rain. Overcast.2 mph75%30.11 "Hg4 mi
6:00 PM43 °FLight rain. Overcast.2 mph76%30.10 "Hg4 mi
Weather by CustomWeather, © 2015

See weather overviewHow to use our weather pages